Погода в Дортмунде

Германия     51°31′24″N   7°28′13″E
темп.,
°C
ветер,
м/с
пор.,
м/с
влажн.,
%
обл.,
%
осадки,
мм/ч
давл.,
гПа
погр.,
м
27 февраля, сб
сб2701:00+5ссз25771 0.0 1038433
04:00+4ссз13820 0.0 1038275
07:00+4зсз11840 0.0 1039198
10:00+6сз12690 0.0 1039395
13:00+9с23540 0.0 1039777
16:00+10с24561 0.0 1038894
19:00+8ссв24671 0.0 1039286
22:00+7св11740 0.0 103926
28 февраля, вс
вс2801:00+6св11800 0.0 103931
04:00+5ссв11850 0.0 103829
07:00+4св11870 0.0 103866
10:00+6св23730 0.0 1037301
13:00+9св24580 0.0 1036652
16:00+11св35580 0.0 1035724
19:00+8всв25720 0.0 1035262
22:00+7в26800 0.0 1036240
1 марта, пн
пн101:00+6всв23850 0.0 1036143
04:00+5всв23870 0.0 1035125
07:00+4в12850 0.0 103464
10:00+7всв23690 0.0 1034232
13:00+11всв34540 0.0 1034576
16:00+12св35540 0.0 1032655
19:00+10в37670 0.0 1032224
22:00+7в12750 0.0 103256
2 марта, вт
вт201:00+6в12760 0.0 103135
04:00+5вюв12750 0.0 103026
07:00+5юв12760 0.0 103026
10:00+8юв13600 0.0 1030217
13:00+13ю13430 0.0 1029902
16:00+13ююз34490 0.0 10281190
19:00+10ю11660 0.0 102824
22:00+8ююз22770 0.0 102981
3 марта, ср
ср301:00+7ююз22810 0.0 102959
04:00+6ююз12860 0.0 102940
07:00+6ю12900 0.0 102931
10:00+10ююз13710 0.0 1029180
13:00+14юз245240 0.0 1028695
16:00+15юз244790 0.0 1027983
19:00+12юз126286 0.3 102626
22:00+10юз277967 0.8 1027326